Theta_e
320 321 320 320 321 319 320 321 321 323 326 326 325 323 325 331 326 324 338 344 340 343 347 346 347 349 347 346 346 344 344 345 345 344 344 343 343 343 343 343 344 345 344 346 348 347 348 349 350 351 351 350 351 351 352 353 355 357 357 354 354 356 357 356 355 355 355 355 354 352 353 355 357 359 356 355 357 355 352 352 352 351 351 350 351 353 353
319 320 321 321 320 319 320 323 323 325 325 325 326 327 330 335 335 335 339 343 346 346 345 346 347 345 344 345 343 342 342 344 345 343 342 342 342 342 342 342 342 342 342 345 345 345 346 346 347 349 349 350 351 349 347 346 348 352 355 355 354 354 354 355 356 355 355 354 352 353 357 359 361 363 359 358 361 359 354 352 351 350 349 349 350 351 352
316 319 321 321 321 319 319 321 324 325 325 325 327 329 333 334 335 340 342 342 344 344 343 346 345 343 344 343 342 342 342 342 344 343 341 341 341 340 341 341 340 340 341 344 344 344 345 345 345 346 347 349 351 350 348 347 346 348 352 355 355 355 354 354 354 355 354 354 352 353 358 362 363 362 359 359 361 358 353 352 350 349 350 349 350 350 351
312 318 321 320 320 320 317 317 322 323 322 323 327 331 334 332 331 337 340 338 340 343 343 345 343 343 344 342 342 342 341 341 341 341 340 339 339 339 340 340 339 339 340 341 342 343 343 343 344 344 346 347 349 351 351 350 350 350 352 355 355 355 354 352 352 354 354 354 354 352 354 358 361 361 360 361 360 354 351 353 353 352 353 352 351 351 352
311 317 321 319 318 316 314 316 322 324 323 326 329 331 334 333 331 332 334 336 340 343 342 342 343 343 343 343 342 340 340 341 339 339 339 337 336 337 338 339 339 339 339 340 341 341 341 342 343 343 344 346 347 348 349 349 350 351 353 354 354 354 353 351 351 352 353 354 353 353 352 354 358 361 362 362 360 354 352 354 355 356 356 355 353 352 351
311 316 321 318 314 313 316 324 327 327 328 329 330 331 333 334 333 333 333 336 340 341 342 342 344 343 342 341 340 338 339 339 339 338 337 336 336 336 336 337 339 340 340 340 340 340 340 341 341 342 344 344 345 346 347 347 347 348 349 350 351 351 351 350 350 350 351 351 350 351 353 352 355 359 362 363 360 356 354 353 354 356 356 355 353 351 351
312 315 319 315 313 317 325 330 329 327 328 330 330 332 335 334 333 335 336 337 338 340 341 341 340 341 340 339 338 338 338 338 340 339 337 337 337 336 335 336 338 339 339 339 339 339 340 340 341 342 343 344 344 345 345 345 345 345 346 346 346 346 347 348 349 350 351 350 349 350 351 352 352 352 356 361 360 357 357 355 353 353 354 354 353 352 352
314 314 314 313 316 323 328 328 328 327 327 328 327 328 333 335 335 337 338 338 339 339 339 338 338 339 339 338 338 337 336 337 339 339 338 337 336 335 334 334 337 338 337 337 337 338 339 340 341 342 343 343 344 344 344 344 344 344 344 343 344 343 344 345 346 348 350 350 349 348 348 351 352 351 353 358 359 357 356 356 355 353 352 353 353 353 353
315 312 311 314 317 319 322 327 330 329 327 330 329 327 331 336 337 337 337 338 339 338 338 339 339 338 339 340 339 337 335 335 337 338 338 336 334 333 331 330 334 336 335 336 336 336 338 339 340 340 341 342 343 343 343 343 343 342 342 342 341 341 342 342 343 344 346 347 348 347 346 348 350 351 353 355 355 354 354 354 354 352 352 353 353 354 354
316 313 312 314 314 314 320 330 333 329 327 331 332 328 331 335 335 334 335 337 339 339 338 339 339 339 340 341 340 337 334 334 334 335 335 333 332 330 328 328 331 332 333 335 335 334 336 337 338 339 339 340 341 341 341 341 341 341 340 340 339 339 339 339 339 341 341 342 343 344 344 345 345 347 348 348 350 352 352 352 352 352 352 352 352 353 353
316 314 313 313 312 316 326 332 331 328 327 330 329 326 328 334 336 333 334 336 338 339 338 338 338 339 340 341 341 337 333 333 334 333 333 331 329 327 326 327 329 329 331 332 333 334 334 334 335 336 336 337 337 338 338 338 338 338 338 338 338 337 336 336 337 338 339 339 340 340 341 342 342 343 344 345 347 349 350 350 351 351 350 349 349 351 351
314 314 313 312 315 323 332 329 327 328 329 329 328 324 327 334 335 334 336 338 338 339 339 339 337 338 339 340 339 335 333 334 334 333 332 330 328 327 325 325 326 327 328 329 331 332 332 332 333 333 333 334 333 333 334 334 334 334 334 335 335 334 334 334 335 337 337 337 338 338 339 340 340 341 342 343 344 344 345 346 347 346 346 346 348 350 349
312 312 312 311 316 327 331 325 326 330 329 328 326 325 330 335 334 334 338 338 337 337 338 339 338 337 338 338 336 334 334 334 332 330 328 326 326 326 325 323 323 323 324 327 329 330 330 331 331 331 332 333 331 331 331 331 332 332 331 332 332 331 331 332 333 335 336 336 336 336 336 338 339 340 341 342 343 343 343 344 345 344 344 345 345 345 344
312 313 313 312 317 328 330 325 327 329 326 325 327 332 336 335 333 335 337 336 335 335 336 337 337 336 336 335 334 334 334 333 331 329 326 325 324 324 323 322 321 321 322 324 326 328 329 329 329 330 332 333 332 332 331 330 331 331 330 330 329 329 329 330 333 335 336 335 335 335 335 337 338 340 340 341 342 343 343 344 344 343 342 342 341 340 338
314 313 313 312 317 328 331 326 328 329 326 327 332 335 335 334 333 335 336 335 336 335 336 337 336 335 336 335 334 333 333 332 331 330 328 327 326 324 323 322 320 320 320 321 322 324 327 328 329 330 332 333 333 332 332 332 331 331 331 330 328 327 327 329 332 334 335 335 334 334 335 337 338 338 338 339 340 340 340 341 340 339 338 338 337 335 334
314 312 315 320 323 329 329 326 328 331 331 332 334 334 334 334 333 333 335 337 336 336 338 338 335 334 335 334 334 333 331 328 327 328 329 328 327 326 325 323 321 320 320 320 320 321 323 326 328 330 331 333 332 331 332 332 331 331 331 330 329 328 327 327 328 330 332 334 334 333 335 336 336 337 336 337 337 338 338 337 336 335 334 334 333 332 330
319 319 325 330 330 329 329 328 330 333 333 332 332 333 334 334 332 332 334 336 336 337 338 338 336 335 334 334 333 332 329 326 326 327 327 325 325 326 325 325 324 322 321 321 320 320 320 322 325 327 329 331 332 331 330 331 331 331 330 329 329 328 327 326 326 325 327 330 332 333 334 335 335 336 336 335 336 336 336 335 335 334 333 331 331 329 328
324 327 329 329 328 329 330 330 332 333 333 331 331 332 333 332 330 331 333 333 333 335 336 337 337 336 335 333 333 331 327 325 326 326 325 324 325 325 326 326 326 325 324 324 323 322 321 320 322 324 326 328 331 331 330 330 331 331 330 330 329 328 327 326 325 324 323 324 327 329 331 332 333 332 333 334 334 334 335 334 333 334 333 332 331 330 328
324 325 328 328 327 328 330 331 332 332 331 331 331 331 332 332 331 331 332 332 332 333 334 336 337 336 335 333 332 330 327 325 326 327 326 326 327 327 328 327 327 327 327 327 327 325 324 321 321 323 324 326 329 330 330 331 331 331 331 330 330 329 328 327 325 325 324 322 322 324 326 328 328 328 328 328 328 329 331 332 333 332 331 330 330 329 328
327 328 331 331 328 328 329 330 331 332 331 331 331 331 332 332 331 331 331 331 331 331 332 335 336 335 334 332 331 329 326 326 327 328 328 328 329 329 330 329 329 329 329 329 329 329 327 325 323 322 323 324 327 329 331 332 332 332 331 331 330 329 329 328 327 326 325 324 322 321 322 322 323 323 324 324 324 322 322 324 327 329 329 328 327 325 325
329 333 334 332 330 330 330 329 331 332 332 332 332 332 331 331 331 331 330 330 331 331 331 332 335 335 334 332 330 328 327 328 329 329 329 330 330 330 330 330 330 330 330 330 330 330 330 329 327 325 323 323 324 327 329 331 332 332 331 330 329 328 328 328 328 327 326 325 325 323 322 321 319 318 319 321 323 321 318 317 319 322 323 325 325 325 324
324 330 334 332 329 330 330 329 330 331 332 332 332 331 330 330 330 330 329 329 331 333 332 332 334 334 333 332 330 328 329 329 329 329 330 330 329 329 330 330 330 330 330 330 331 331 330 330 330 328 327 325 324 325 326 327 329 331 331 330 328 326 325 325 326 326 325 325 326 325 324 323 322 319 318 318 319 321 320 319 318 319 319 320 322 324 325
322 327 332 331 328 329 331 331 330 331 331 331 331 331 330 329 329 329 329 329 331 332 333 333 334 334 333 331 329 329 329 329 329 329 329 329 329 329 329 329 329 329 330 330 330 331 330 330 330 330 329 328 327 326 326 325 326 327 329 328 327 326 324 323 324 325 324 325 326 326 326 326 326 324 322 320 318 318 320 321 320 320 320 319 319 321 322
325 326 330 329 327 328 331 331 331 331 330 329 330 330 330 329 329 329 329 329 330 331 332 333 334 334 333 330 328 328 328 328 327 328 328 328 329 329 329 329 329 329 329 329 329 329 329 329 329 329 328 328 328 328 327 327 326 327 327 327 325 324 324 324 324 324 325 326 326 326 327 328 328 327 326 324 321 318 319 320 319 319 317 317 317 317 317
328 328 330 330 328 328 331 331 330 330 330 330 329 329 329 329 329 330 330 331 330 330 331 332 333 334 333 330 327 327 327 327 326 327 328 328 329 329 329 329 329 329 330 329 329 329 329 328 328 328 328 327 327 328 328 328 328 328 327 327 324 322 321 323 324 324 324 325 326 326 327 328 328 327 327 326 325 323 321 319 319 317 316 316 316 317 316
329 329 330 328 327 329 330 331 330 329 329 329 330 329 330 329 329 330 331 332 331 330 330 331 332 332 332 330 328 327 327 326 326 326 327 328 328 328 328 328 329 329 329 329 329 328 327 327 326 326 326 325 325 326 326 327 328 329 328 327 325 322 321 323 325 325 324 323 324 325 326 326 326 327 326 325 326 326 325 323 321 320 319 318 317 317 318
328 330 330 328 328 329 330 330 330 329 329 330 330 330 330 329 330 331 331 332 331 330 329 330 331 331 330 329 329 328 327 327 326 327 328 329 328 327 327 328 329 329 329 328 326 325 325 326 326 325 323 323 323 324 324 325 326 328 328 327 327 326 324 324 325 326 324 322 322 323 325 326 325 326 326 326 325 325 325 325 325 324 323 322 321 320 319
329 331 329 328 328 329 329 330 330 330 330 330 331 330 330 329 329 330 330 331 332 332 331 331 331 331 330 330 329 329 329 329 328 328 328 328 328 327 328 329 329 328 327 326 324 323 323 324 324 324 323 323 323 324 323 323 325 327 326 325 325 325 325 325 326 326 324 323 323 323 322 322 323 324 324 325 326 325 324 324 323 323 324 325 323 322 320
330 330 328 327 328 329 329 330 331 330 330 330 330 330 329 328 327 328 328 330 332 332 331 331 332 332 332 331 330 330 330 329 329 328 328 328 327 328 328 328 326 325 324 324 323 323 323 323 324 324 323 322 322 322 322 322 323 324 325 324 323 323 325 325 325 325 325 325 325 322 319 319 322 324 324 324 325 324 324 324 324 323 322 323 324 324 324
330 330 330 329 329 328 328 331 331 330 329 330 330 329 328 327 327 326 326 327 329 330 330 331 332 332 332 332 331 330 330 329 329 329 329 329 328 328 327 325 323 323 323 324 324 324 324 324 324 323 322 321 321 321 321 321 321 320 321 322 323 323 324 323 323 324 324 325 324 323 321 322 323 324 323 323 324 324 323 323 323 322 322 322 322 324 325
330 331 332 332 330 328 329 331 331 330 330 330 330 328 328 328 327 326 326 327 328 328 329 330 331 331 331 331 331 330 329 329 329 329 329 328 327 326 324 322 322 323 323 324 324 324 324 324 323 323 322 322 322 321 320 320 321 320 319 319 320 322 322 322 322 322 323 323 323 322 322 323 323 322 322 322 322 323 323 323 323 323 323 323 322 322 323
331 333 334 333 330 329 330 331 331 331 330 330 330 330 329 328 327 326 326 326 326 327 328 328 329 329 329 329 329 329 328 328 328 328 328 326 326 324 323 323 323 324 323 323 323 324 324 324 323 323 322 322 322 321 319 318 319 319 319 319 319 320 322 322 321 321 321 321 321 321 321 320 320 320 321 321 321 322 323 322 322 323 323 322 322 322 323
333 334 335 333 331 330 331 332 332 331 331 330 331 331 330 329 328 327 326 326 326 326 327 327 327 327 327 327 327 327 327 327 327 326 326 325 325 324 323 323 324 323 323 324 323 323 322 322 322 322 322 321 320 319 317 317 317 318 318 319 319 319 320 320 320 320 320 320 320 320 319 319 319 320 320 320 320 321 321 321 321 322 322 321 322 322 322
333 333 333 332 331 330 331 333 333 332 331 331 331 331 331 330 328 327 327 326 326 326 326 326 326 326 326 326 326 326 326 325 325 325 324 324 324 324 323 323 323 324 324 324 323 322 322 322 322 322 321 320 318 317 317 317 318 318 318 319 319 319 319 319 319 320 320 320 320 320 319 320 320 320 320 320 320 320 321 321 321 321 320 320 322 322 320
332 329 328 329 329 328 330 332 333 332 332 331 330 330 330 329 327 327 327 326 326 325 325 325 325 324 324 324 324 324 324 324 324 323 323 324 324 324 324 323 323 324 324 323 323 322 322 322 322 321 318 316 315 316 317 318 318 318 318 319 319 319 319 319 319 318 318 318 319 319 320 320 320 320 320 320 320 320 321 320 320 321 320 319 321 321 319
330 327 327 329 330 328 330 332 332 332 332 332 331 330 330 328 327 327 326 325 325 325 325 325 325 324 323 323 324 324 323 323 323 323 323 324 324 324 324 324 323 323 323 322 323 323 321 320 319 317 315 314 315 316 317 318 318 318 318 318 318 317 318 318 318 317 317 317 318 318 318 319 320 320 321 321 320 320 320 319 319 320 319 318 321 322 319
328 325 327 331 330 328 330 332 332 332 333 333 331 330 329 327 327 327 326 326 325 325 325 325 325 325 324 323 324 324 323 323 323 323 324 324 324 324 324 323 322 321 321 321 322 322 320 318 317 315 314 315 317 317 317 317 316 316 316 316 316 316 317 317 316 316 316 316 317 318 318 318 318 319 319 320 319 320 320 319 319 319 318 318 320 321 320
327 325 327 330 330 329 331 332 331 331 332 332 331 330 328 327 327 327 326 325 325 325 325 326 325 324 324 324 324 323 323 323 323 323 324 324 324 323 323 322 321 321 322 322 321 321 319 317 315 315 315 316 316 316 315 315 315 315 316 316 316 316 316 316 316 316 316 316 316 317 318 318 318 318 318 318 318 318 319 319 318 318 318 319 320 321 320
328 327 329 332 332 331 331 331 331 330 331 331 331 330 328 327 327 327 326 326 325 325 326 325 325 324 324 324 324 324 323 323 324 324 324 324 323 323 322 323 323 322 320 318 318 318 317 315 314 315 316 315 314 314 315 315 314 315 315 316 316 315 315 315 315 315 315 315 315 316 316 317 317 317 317 317 318 318 318 319 319 318 318 318 319 320 319
330 330 331 332 331 331 331 331 331 329 330 330 330 330 329 328 327 326 326 326 326 326 326 325 325 325 325 324 324 324 324 324 325 324 324 323 322 321 321 322 322 320 317 314 315 316 315 313 313 315 315 314 314 315 315 314 314 314 315 315 315 314 314 314 314 314 314 314 314 315 315 316 316 316 317 317 317 317 317 318 319 319 319 318 318 319 319
331 330 330 331 331 331 332 332 330 328 329 329 329 330 329 328 327 327 327 327 327 326 325 325 325 325 325 324 324 325 325 324 324 323 322 321 321 319 319 320 320 318 316 314 314 314 313 312 313 314 314 314 315 316 314 312 313 314 314 313 314 314 314 314 314 314 314 314 314 315 315 315 315 316 316 316 317 317 318 318 318 318 318 318 318 318 318
333 332 331 331 331 331 330 329 328 328 328 328 328 330 329 328 328 328 328 328 327 326 325 324 324 324 324 324 324 325 325 324 323 321 321 320 319 319 318 318 318 317 315 313 313 313 313 314 314 314 314 314 315 313 311 311 313 314 313 313 313 314 314 314 314 314 314 314 314 315 315 315 315 316 316 316 316 317 317 317 317 317 317 317 317 316 316
334 333 332 331 331 329 328 328 328 329 329 329 329 330 330 329 328 329 329 328 327 326 326 325 325 325 325 325 325 325 324 323 322 321 320 319 318 318 318 318 318 316 313 312 313 313 313 313 313 314 314 313 312 310 309 311 314 313 312 313 313 313 312 313 313 313 313 313 313 314 314 314 315 315 315 315 316 316 315 316 316 316 316 316 316 315 315
334 333 331 331 330 328 328 329 329 330 331 331 330 330 329 328 328 329 329 328 327 326 326 327 326 326 326 325 324 323 323 322 321 320 319 318 317 316 316 316 316 314 312 311 312 312 312 313 314 313 312 312 310 308 309 312 314 312 311 312 312 312 312 312 312 312 313 313 313 313 313 313 313 314 314 314 315 315 315 315 315 315 315 315 315 314 314
334 333 331 330 329 330 330 330 330 331 331 331 330 329 328 328 329 329 328 327 327 327 328 327 326 325 324 323 322 322 321 320 319 319 318 316 316 316 314 313 314 313 311 310 311 312 313 313 313 311 310 309 308 308 310 312 312 311 311 312 311 311 311 311 311 311 312 311 311 312 312 312 312 312 312 312 313 313 313 313 314 314 314 314 314 313 313
333 333 331 330 330 331 331 331 330 331 331 331 329 329 328 329 329 328 327 327 328 327 326 325 324 323 323 322 321 321 320 318 317 317 316 316 317 316 314 312 313 312 310 308 309 311 312 312 310 309 309 307 307 308 310 312 311 310 311 311 310 310 311 311 310 311 311 310 310 310 310 310 310 311 311 311 311 312 311 311 311 312 312 311 311 311 311
332 332 331 332 332 332 331 331 332 332 331 330 330 330 329 329 328 328 327 327 327 325 324 324 323 323 322 321 320 319 318 316 316 316 315 315 315 314 312 311 312 311 309 309 310 311 312 311 309 308 307 306 306 308 310 310 310 310 310 310 310 310 310 310 310 310 310 309 309 309 309 309 309 309 310 310 310 310 310 310 310 310 309 309 309 308 308
334 332 332 334 334 333 332 333 333 332 330 330 330 330 329 328 328 327 327 326 325 324 324 323 322 322 321 320 318 317 316 315 316 315 314 314 314 312 311 310 310 308 308 309 310 310 309 309 308 307 306 305 306 309 310 309 309 309 309 309 309 309 309 309 309 309 309 308 308 308 308 308 308 308 308 308 308 309 309 309 309 309 309 308 308 307 306
334 334 334 334 334 333 333 334 332 330 329 329 329 329 328 327 327 326 325 324 323 322 322 322 321 321 319 318 316 315 315 315 315 315 314 313 313 312 312 311 309 307 307 309 311 310 308 306 305 304 305 306 308 309 309 309 309 309 309 308 308 308 308 308 308 308 308 307 307 307 307 307 307 307 307 307 307 307 307 307 307 307 307 307 307 307 306
335 335 334 334 334 334 334 332 330 328 329 329 329 328 327 326 325 325 324 323 322 321 321 321 320 319 317 315 315 315 315 315 315 314 314 313 312 312 312 312 310 307 308 310 311 310 309 306 303 301 303 306 308 309 309 309 308 308 308 308 308 308 308 307 307 306 307 306 306 306 306 306 306 306 306 306 306 306 306 305 305 305 305 305 305 306 306
334 334 334 334 335 335 333 330 328 328 329 329 328 327 326 325 324 323 323 321 321 321 321 319 318 317 315 314 314 315 314 314 313 313 312 312 311 311 312 311 309 307 308 309 309 309 310 309 306 303 304 306 308 309 308 308 308 308 307 307 307 307 307 307 306 306 306 306 305 305 305 305 305 305 305 305 305 305 304 304 304 304 304 304 304 304 304
332 333 333 333 333 333 330 328 329 329 329 328 326 325 324 323 323 323 321 320 320 320 319 318 317 316 315 314 314 314 313 313 311 310 310 310 310 310 310 310 309 307 308 309 309 308 309 308 306 305 305 307 309 309 307 307 307 308 307 307 307 307 306 306 306 306 305 305 305 305 305 304 304 304 304 304 303 303 303 303 303 303 303 303 303 303 302
Wind_Speed
9 8 7 7 7 7 7 6 7 6 7 8 8 9 8 6 6 5 2 2 1 1 1 1 4 6 7 9 9 10 10 10 10 10 11 12 11 11 12 11 11 11 10 10 10 10 9 8 7 5 3 2 3 4 5 5 5 3 5 9 12 13 15 17 17 18 18 17 17 18 16 15 14 14 16 13 10 11 13 13 13 13 13 16 18 18 19
8 8 6 7 8 7 6 6 7 6 7 7 7 8 7 4 4 5 4 2 0 2 2 1 4 3 4 6 7 9 11 11 11 11 11 11 10 11 11 10 10 10 9 10 10 10 9 9 8 7 5 4 4 6 8 9 9 8 6 6 8 10 12 15 16 17 17 17 20 21 16 14 12 12 15 12 8 10 14 14 16 17 15 16 18 19 19
9 9 7 6 8 8 7 7 6 7 7 7 5 5 5 4 4 4 3 2 2 2 1 2 3 1 2 5 7 9 10 10 11 12 12 11 10 10 10 9 10 10 9 10 10 10 10 10 10 9 8 7 5 4 6 10 13 12 9 8 8 7 9 12 12 13 15 16 20 22 17 14 13 13 15 14 12 14 16 16 17 19 18 18 18 18 18
7 7 6 6 7 8 10 9 8 9 8 5 3 2 2 4 5 3 1 1 1 4 3 2 1 2 3 5 7 9 9 10 11 12 11 10 10 10 9 9 10 9 10 10 10 11 12 12 11 10 9 8 6 5 3 4 8 9 7 7 8 6 7 9 9 10 15 17 19 21 20 17 15 14 15 14 15 18 18 17 17 17 18 19 20 18 16
5 5 4 5 6 7 9 6 4 6 6 4 3 3 2 3 6 4 1 0 0 5 6 3 2 3 4 5 6 7 9 10 11 11 10 8 9 10 10 9 9 10 10 11 12 12 12 12 11 9 8 8 7 7 5 3 2 1 1 3 4 3 5 8 8 10 14 16 17 19 21 21 18 14 13 13 15 16 17 16 15 14 15 17 20 20 19
5 3 3 5 8 6 2 2 3 2 4 4 5 5 3 3 2 1 3 4 4 6 6 6 5 5 6 6 6 6 8 9 8 9 8 6 7 8 9 9 8 11 13 12 12 12 10 10 9 8 8 7 7 7 6 6 8 8 9 10 10 8 6 6 7 9 13 14 15 17 19 20 19 15 12 11 12 13 16 17 17 17 16 16 18 19 19
5 0 1 6 7 1 2 4 2 2 3 4 7 5 3 3 3 2 5 6 6 5 4 5 6 6 8 9 8 7 7 6 7 7 5 3 5 7 6 6 6 11 14 13 13 12 10 10 10 9 9 9 8 8 8 9 11 13 15 16 15 13 11 9 7 8 10 12 15 18 20 20 20 18 14 11 11 12 13 15 16 16 16 17 19 18 15
4 3 5 6 2 1 4 4 3 1 3 6 8 6 4 4 4 2 5 5 6 5 5 7 6 6 8 9 8 8 6 4 3 4 3 2 3 7 7 2 4 11 13 13 13 12 11 11 12 12 12 11 11 11 12 13 15 16 17 17 15 14 13 11 8 5 4 5 10 15 18 19 18 17 15 11 11 13 14 13 12 13 15 18 19 17 15
4 6 6 4 3 4 7 5 4 2 5 4 5 5 2 0 2 1 2 3 6 7 6 7 7 6 6 6 6 7 6 3 3 2 1 1 2 7 9 6 7 11 13 13 13 12 12 12 13 14 13 13 14 15 15 15 16 17 18 17 15 13 11 10 9 8 6 4 1 3 7 9 9 11 12 11 12 15 17 15 13 13 16 19 17 13 12
5 6 6 5 6 4 3 4 3 3 4 2 3 3 2 0 3 5 4 2 2 6 7 8 7 5 4 3 4 7 7 5 4 3 1 1 4 7 9 9 10 10 11 12 12 12 14 13 12 13 14 14 16 16 16 15 15 16 17 15 14 13 12 11 11 11 11 10 8 7 6 6 7 8 9 10 12 15 18 21 19 15 14 16 15 12 10
5 6 6 6 5 1 2 2 2 2 3 3 3 4 2 3 6 7 8 5 5 5 7 8 6 4 3 2 3 7 8 7 6 4 3 4 6 8 9 10 11 10 10 10 10 12 14 14 13 13 13 14 15 15 15 15 15 15 15 14 13 13 14 14 13 13 13 12 11 11 10 9 8 8 7 7 8 9 13 19 21 18 13 11 10 9 8
7 7 6 5 2 3 2 1 2 2 2 3 6 6 3 3 7 3 8 8 6 4 5 7 6 3 2 2 5 8 9 9 8 6 4 5 6 8 10 10 10 9 9 9 10 11 13 13 12 12 13 13 14 14 14 14 15 15 14 13 13 12 13 15 15 15 15 14 13 12 10 9 9 9 9 7 6 5 4 4 8 12 11 8 8 7 7
9 8 7 5 1 6 4 2 2 3 2 4 6 3 3 2 4 2 7 5 4 3 2 2 3 2 1 5 8 9 9 8 9 9 8 7 8 9 10 9 9 9 9 10 10 11 11 11 11 11 12 13 13 13 14 14 15 14 13 13 13 13 13 14 15 15 14 13 13 13 12 11 11 11 11 10 8 7 6 5 4 5 6 6 6 8 10
8 6 6 6 2 3 2 2 3 3 3 4 3 2 3 1 3 4 9 4 1 2 2 2 3 4 6 9 10 9 8 7 6 8 10 11 10 10 10 9 8 10 10 10 10 11 11 11 11 11 12 12 12 12 13 14 13 12 12 13 13 14 14 14 14 14 14 13 13 13 14 14 13 12 13 13 12 11 9 7 5 5 6 6 7 10 12
6 6 5 5 2 1 2 4 4 2 3 1 4 4 4 4 3 3 9 8 4 3 4 5 6 7 9 10 9 9 8 7 7 8 10 11 10 9 10 9 9 9 10 10 11 11 11 11 11 11 11 12 12 12 12 12 11 11 12 12 13 13 14 14 15 14 14 13 13 14 14 14 13 13 15 15 15 14 13 12 12 11 9 8 7 9 11
5 5 4 2 1 4 5 4 1 2 3 5 6 5 5 5 4 2 5 8 8 8 7 8 9 9 9 9 8 8 7 7 8 9 10 10 9 9 10 10 10 10 10 10 11 11 11 11 10 11 11 11 11 12 11 11 10 11 11 11 11 12 12 13 14 14 13 13 13 13 13 13 13 14 14 15 15 14 13 13 13 12 11 11 11 11 11
4 1 2 2 2 4 4 1 2 5 7 7 7 5 4 4 3 2 3 5 6 6 6 8 9 9 9 8 8 7 7 8 9 9 10 11 11 11 11 11 11 11 11 11 11 11 11 10 10 10 10 10 11 11 10 9 9 10 10 11 11 12 12 12 12 12 13 13 12 13 13 13 13 13 13 14 16 15 14 13 12 11 10 11 11 10 10
2 2 4 1 2 3 5 4 4 5 6 5 5 4 3 4 3 2 3 5 5 5 6 7 8 9 10 9 7 7 8 9 9 9 10 10 11 11 12 11 10 11 11 11 11 11 11 10 9 9 9 10 10 10 9 9 9 9 9 10 10 11 11 12 12 12 12 12 12 12 12 12 13 14 13 13 14 14 13 12 12 11 10 10 9 8 8
2 2 5 6 5 4 5 6 5 4 4 4 3 3 4 4 4 3 5 6 6 6 6 7 8 9 11 9 7 7 8 9 9 9 9 9 10 10 10 10 9 10 10 11 10 11 10 10 9 9 9 10 10 10 9 9 9 9 9 9 9 9 10 10 11 12 12 12 13 13 12 12 12 13 13 13 13 13 12 11 10 10 9 9 8 7 7
2 0 2 4 4 4 4 5 5 5 5 4 4 4 5 5 5 5 6 6 6 7 7 7 8 10 10 9 8 8 8 8 9 10 10 9 9 9 8 8 9 9 10 10 10 10 9 9 9 9 10 10 10 10 10 10 9 9 9 9 9 9 9 9 9 10 10 11 12 13 14 15 15 14 13 13 13 13 12 10 9 8 8 8 8 8 7
5 3 3 4 4 4 6 5 5 5 6 6 6 6 7 7 7 6 6 6 6 7 8 8 9 10 9 9 9 9 8 8 9 10 10 9 9 8 8 8 8 9 10 9 9 9 8 8 9 9 10 10 10 10 9 9 9 8 8 8 8 8 8 8 8 8 8 9 9 10 12 14 17 17 16 14 13 13 14 13 11 9 8 7 7 8 8
6 6 8 7 4 4 6 7 6 7 8 7 7 7 7 8 8 7 7 7 6 8 9 10 10 9 9 10 10 10 9 9 10 10 10 9 8 8 8 8 8 9 9 9 9 9 8 7 8 8 9 9 9 9 9 9 9 9 8 7 8 8 8 8 8 7 7 8 7 7 8 9 11 14 15 16 15 14 14 14 14 13 12 11 10 9 8
5 2 7 9 6 3 5 9 9 9 8 8 8 8 8 8 8 7 7 7 8 9 10 10 10 9 9 11 12 10 10 11 11 10 9 8 8 7 7 7 7 7 8 7 8 8 7 7 7 7 8 8 8 8 9 8 8 9 8 8 8 8 8 8 8 8 7 6 5 6 6 5 6 7 9 12 14 14 14 13 13 14 14 14 13 12 10
3 1 6 8 6 3 6 10 10 9 9 8 9 9 8 8 8 8 7 7 8 9 8 9 10 10 11 12 12 11 12 12 12 10 9 8 7 7 6 6 6 6 6 6 6 7 6 6 6 6 7 7 7 7 8 8 8 8 8 8 7 7 7 7 7 7 6 6 5 4 4 3 2 1 3 7 10 11 11 10 11 11 12 12 12 12 12
2 3 6 7 5 3 6 10 10 9 9 9 8 8 9 9 9 9 8 7 8 9 9 9 10 11 11 12 12 12 13 12 12 11 9 8 8 7 6 6 6 6 6 5 5 5 5 5 5 5 6 6 6 5 6 7 7 7 7 7 7 8 7 6 6 6 6 5 5 4 3 2 1 2 2 2 5 7 6 6 7 8 8 9 10 10 10
3 3 7 7 5 4 7 9 9 9 10 10 9 9 9 9 9 9 9 9 9 10 10 10 11 12 12 11 11 12 13 13 12 11 9 8 8 7 6 6 6 5 5 5 5 5 5 5 5 5 5 6 5 5 5 6 5 5 5 5 4 5 7 6 5 5 5 5 4 4 4 4 3 3 3 3 1 2 5 7 7 6 5 6 8 9 9
5 6 8 7 7 8 9 9 9 11 11 10 10 10 11 11 10 9 10 10 10 10 10 10 11 12 12 11 11 11 11 12 12 11 8 7 6 5 5 6 5 5 6 6 5 5 5 4 5 5 5 5 5 5 4 5 5 4 5 5 3 2 4 6 4 4 5 5 5 5 4 4 5 5 4 2 3 3 2 3 2 2 4 4 5 7 7
7 7 8 7 7 8 9 9 11 11 11 11 12 12 12 12 11 10 10 9 9 10 10 10 11 11 11 11 11 11 11 11 11 10 8 7 7 5 5 6 6 6 7 7 6 6 5 4 4 5 4 4 4 4 5 6 5 4 5 6 5 3 2 3 4 4 5 5 5 5 5 5 6 6 5 5 6 4 1 1 4 4 2 4 0 3 3
8 9 8 6 5 7 9 10 11 12 11 12 13 12 12 12 11 10 10 10 10 10 9 10 11 11 10 10 10 11 11 10 9 8 7 7 6 6 6 7 7 8 8 7 6 5 5 4 3 3 3 3 3 4 5 6 6 5 5 7 7 6 4 4 5 5 6 5 4 5 6 6 6 6 6 6 7 6 5 5 5 5 3 1 3 4 3
8 9 8 6 6 9 10 10 11 12 12 12 12 12 12 11 10 9 10 11 10 10 10 10 11 10 10 11 11 10 10 9 8 8 7 6 7 7 7 7 7 7 7 6 5 4 3 3 1 1 2 4 5 5 6 6 6 6 6 7 7 6 6 6 7 7 8 7 5 5 6 6 6 6 7 7 7 7 8 7 5 5 6 4 3 4 4
10 10 10 8 8 11 12 11 11 12 11 12 12 12 12 11 10 9 9 10 9 10 11 11 11 10 10 10 10 9 9 9 8 8 8 8 8 8 7 6 5 4 4 4 2 1 1 1 2 2 3 5 6 7 7 7 7 7 7 7 7 7 7 7 7 8 8 8 7 6 6 6 7 7 7 8 8 8 7 7 6 7 8 7 6 5 1
11 11 11 11 10 11 11 11 11 12 12 12 12 12 11 11 10 10 9 9 9 11 12 12 11 11 11 10 10 10 9 9 9 9 9 9 8 8 6 4 2 1 2 2 2 1 1 2 3 3 4 6 7 8 9 9 8 8 8 8 8 6 5 5 7 8 8 9 9 8 8 7 7 8 8 8 8 9 8 8 8 8 9 10 8 2 3
12 11 11 11 10 11 11 11 11 12 13 12 12 11 10 11 11 11 11 11 11 12 12 11 11 11 11 11 11 11 10 10 10 10 9 9 8 7 5 4 3 2 1 2 3 3 3 3 3 4 6 7 8 9 10 10 9 9 9 8 8 8 6 6 7 8 8 9 10 10 10 9 8 8 10 9 9 9 9 9 9 8 8 9 5 3 4
9 9 9 10 11 11 12 12 12 11 11 11 11 11 11 12 12 12 13 13 13 12 12 12 12 12 12 11 11 11 11 10 9 9 9 9 8 7 6 4 3 3 2 2 3 3 3 3 3 5 6 7 9 10 10 10 9 9 9 9 9 9 8 8 7 7 8 9 9 9 10 9 8 9 10 10 10 10 9 9 10 9 9 9 4 1 0
8 8 9 11 13 12 12 12 12 11 12 11 11 11 12 13 13 14 14 14 13 13 14 14 13 13 12 12 11 12 11 10 9 9 10 9 8 8 7 6 5 4 4 3 3 2 2 2 3 6 7 9 10 10 9 8 8 9 9 9 9 9 9 8 8 8 8 9 9 9 9 9 9 10 11 11 10 10 10 10 10 9 10 9 4 2 2
8 10 9 10 11 13 13 13 14 14 13 12 11 13 14 14 15 16 15 14 14 14 15 14 14 14 13 12 12 12 11 11 10 10 10 9 9 8 8 7 5 5 6 6 5 4 3 2 5 7 9 10 9 7 7 7 8 9 9 10 9 9 9 9 8 9 8 8 9 9 9 9 10 11 11 12 11 10 11 12 11 10 10 9 5 4 5
11 13 11 8 10 13 14 14 14 15 15 14 14 15 15 15 16 17 16 15 15 15 15 15 15 14 13 13 12 11 11 10 10 9 9 9 9 8 8 7 7 7 8 5 4 5 4 5 6 7 8 7 6 5 6 7 8 9 10 10 9 9 10 9 9 9 9 9 9 9 9 10 11 11 11 11 11 11 12 12 11 10 10 9 7 5 6
15 17 13 10 11 13 14 14 14 14 15 15 16 16 16 16 16 17 16 15 15 14 15 15 14 13 13 12 12 11 10 10 9 8 9 9 8 8 8 7 6 6 5 1 2 1 2 3 5 5 5 4 4 5 5 6 8 8 8 8 8 9 9 9 10 9 9 10 10 10 10 11 11 11 12 12 12 12 11 11 11 11 9 8 7 7 7
14 13 12 11 11 12 13 14 14 14 15 16 16 16 17 17 17 17 16 15 14 14 14 14 14 13 12 12 11 9 9 9 8 8 9 8 7 7 6 4 2 2 2 2 1 1 1 1 3 3 3 3 5 5 5 5 8 8 7 7 7 7 8 8 9 9 9 10 10 10 11 11 11 12 12 12 12 11 11 10 10 10 9 8 7 7 8
10 9 11 12 12 12 12 13 13 14 16 17 17 17 18 18 17 17 15 14 14 14 14 14 13 12 11 11 10 9 9 9 9 9 9 8 7 7 6 5 5 4 1 2 2 1 1 3 4 4 3 3 4 4 4 6 8 8 7 6 7 7 7 7 8 8 9 9 10 11 11 11 11 12 12 12 11 11 10 10 9 8 8 8 8 8 7
11 12 13 13 13 13 13 13 13 13 15 16 17 18 19 18 17 16 15 14 14 14 14 14 13 12 11 11 10 9 9 9 8 8 8 7 7 8 8 4 5 5 4 3 3 1 3 2 2 3 3 3 2 3 5 7 8 7 6 6 7 7 7 8 8 8 9 9 10 10 11 11 12 12 12 12 11 10 9 10 9 8 8 8 7 7 7
13 14 14 13 13 14 14 13 13 13 14 15 17 18 18 18 17 16 15 15 15 15 14 13 12 11 11 11 10 10 10 9 7 7 8 7 7 7 6 2 6 5 3 4 4 4 4 3 2 3 3 2 2 4 5 6 6 6 5 6 6 6 7 7 7 8 9 9 9 9 10 11 11 11 11 11 10 9 9 9 7 6 7 7 7 8 9
14 15 14 13 14 15 15 14 14 14 14 15 16 18 18 17 17 16 16 16 16 15 13 13 12 11 11 11 10 9 9 8 8 8 8 6 4 3 3 2 4 4 2 2 3 4 5 4 2 2 4 5 5 6 5 5 6 5 5 5 5 6 6 7 7 8 9 9 9 9 9 9 10 9 9 9 9 9 9 9 6 5 6 6 5 7 7
16 16 16 16 16 16 16 15 15 15 14 15 16 18 18 17 16 16 16 16 16 15 14 14 14 12 12 11 10 9 9 8 8 8 8 6 5 5 5 4 4 3 2 3 5 5 4 3 4 4 3 6 6 5 5 7 8 6 4 5 5 5 6 6 7 7 8 8 8 9 9 9 10 9 9 9 9 9 9 8 7 6 5 4 3 4 5
16 16 18 19 19 17 16 17 16 16 16 16 17 17 17 17 16 17 17 16 16 16 15 14 14 13 12 11 9 8 8 8 7 7 7 5 5 7 9 7 4 4 4 4 5 5 2 3 4 3 3 4 4 5 6 8 7 4 4 5 5 5 5 6 6 6 6 7 7 8 8 8 9 9 9 9 9 8 8 9 8 7 6 5 3 3 3
16 16 18 20 20 19 18 18 18 18 19 18 16 16 17 17 17 17 17 17 16 15 14 14 13 12 11 10 9 8 8 7 7 7 5 1 3 7 10 8 6 8 7 4 4 5 3 1 2 5 6 5 6 6 7 7 5 3 4 4 4 4 5 5 4 5 5 5 6 7 7 8 8 8 8 8 8 8 7 8 7 6 5 5 4 3 2
15 15 17 20 21 21 20 20 20 20 19 17 14 14 17 18 17 16 16 16 15 14 13 13 12 11 11 11 10 9 9 8 7 7 5 3 5 8 10 9 8 9 8 5 3 3 4 3 2 3 4 5 7 7 6 4 3 3 3 4 4 4 4 4 4 4 4 4 5 6 7 6 7 7 7 7 7 7 7 7 6 5 4 3 2 2 2
14 16 18 20 21 21 21 21 20 19 18 16 15 17 18 19 17 17 16 16 15 14 13 13 12 11 11 11 10 9 9 9 7 7 7 7 6 7 7 7 7 8 8 6 5 4 5 5 5 5 5 6 7 7 6 4 3 3 3 3 3 3 3 3 4 4 4 5 5 6 6 6 6 6 7 6 6 6 7 6 6 5 5 3 2 1 0
14 15 16 18 20 21 22 20 18 16 17 18 18 19 20 19 18 17 17 17 16 14 13 13 12 12 11 11 10 9 9 8 6 5 8 9 7 6 7 8 8 8 8 6 6 6 6 6 6 6 7 8 7 7 5 4 3 3 3 3 4 4 3 3 3 4 5 5 5 4 5 6 5 5 6 6 6 6 6 6 5 6 7 5 3 2 3
13 14 15 17 19 21 21 20 18 17 19 20 20 20 21 20 18 16 17 17 16 14 13 13 12 12 12 11 10 10 10 7 5 5 9 9 7 7 7 8 8 9 7 5 5 6 6 5 4 5 8 8 7 6 5 4 4 4 4 4 4 3 2 1 3 4 4 5 5 5 5 6 6 5 5 6 7 6 6 6 5 6 6 6 6 5 5
12 13 14 15 17 18 20 20 19 20 21 21 21 21 21 19 17 16 17 17 15 14 14 13 12 12 12 12 11 10 10 9 8 8 9 9 8 7 7 7 7 8 7 5 4 5 6 4 4 6 7 7 6 5 4 4 5 4 3 4 5 4 3 2 4 4 3 3 4 5 5 5 6 6 5 6 6 6 7 7 6 6 6 7 7 7 6
11 12 13 14 15 16 17 18 18 19 20 21 21 21 20 18 16 16 17 16 15 14 13 13 13 12 13 13 12 11 11 11 10 10 10 9 8 8 8 7 7 8 7 6 5 5 4 4 5 6 6 6 6 5 4 5 6 5 4 4 5 5 4 4 4 4 3 3 3 4 5 5 5 5 5 6 6 6 6 6 6 7 7 7 7 7 7
Wind_Direction
259 268 276 283 280 274 282 293 290 287 283 280 282 283 283 288 282 288 24 53 266 104 186 245 31 33 39 46 43 41 43 44 49 51 47 44 46 50 51 50 49 48 47 47 47 44 38 29 23 18 3 336 309 306 320 336 344 319 258 242 238 234 230 235 244 254 266 273 262 246 235 230 229 224 224 227 224 222 223 222 224 229 239 246 242 232 229
271 261 257 269 269 266 264 266 275 284 281 280 290 294 294 290 282 291 301 282 25 22 300 24 54 37 52 57 48 45 43 44 52 54 48 45 46 51 53 53 54 54 50 51 51 47 41 34 27 17 2 349 319 281 275 284 294 302 298 264 257 257 250 247 247 249 259 275 278 267 243 222 224 224 224 232 235 230 231 229 226 226 232 246 254 247 237
266 243 236 254 258 262 260 247 251 263 266 269 282 295 298 286 265 255 258 252 181 189 257 72 83 38 55 63 51 48 49 51 57 53 43 36 35 43 52 54 54 56 55 52 50 49 44 39 36 24 8 360 347 308 276 270 270 275 281 276 267 264 260 261 262 263 262 260 267 273 262 231 223 229 229 230 232 237 237 231 230 233 232 235 247 253 249
254 208 210 251 258 263 262 245 232 238 246 252 268 304 314 298 291 261 177 311 241 165 143 104 101 64 64 73 64 56 56 57 60 59 49 34 27 31 41 52 53 50 50 48 44 43 39 35 33 26 15 10 3 355 340 280 261 255 260 274 274 270 278 280 274 272 270 259 256 266 269 254 237 229 228 226 228 236 236 229 228 236 239 234 234 243 252
247 165 177 275 270 256 257 248 226 234 244 243 246 274 275 272 293 290 190 328 118 144 149 182 173 108 90 86 76 71 70 65 59 61 59 46 33 23 18 37 55 52 48 45 41 39 37 33 29 22 18 18 13 8 9 6 343 318 49 0 331 311 290 280 274 275 273 265 259 259 262 261 251 234 224 224 227 232 234 232 226 227 238 242 240 242 244
261 137 112 279 266 251 255 56 55 284 273 255 246 252 247 244 288 9 125 130 141 154 167 179 157 113 99 100 98 95 96 91 78 66 60 58 61 46 16 10 41 56 51 47 45 42 40 39 34 28 32 34 29 28 34 46 51 55 59 53 42 30 358 307 289 285 277 269 266 262 258 260 259 247 229 221 225 230 234 236 233 231 239 245 245 247 246
266 306 186 248 253 241 77 73 73 279 276 254 247 247 236 253 264 169 139 136 141 144 140 140 135 121 114 111 105 98 94 91 89 82 73 70 92 89 53 2 28 61 55 46 46 45 45 50 48 44 49 54 54 51 51 55 58 58 58 55 50 44 31 9 341 314 291 273 266 263 260 259 256 252 245 233 227 231 233 233 234 237 240 240 239 240 239
254 256 235 244 282 118 174 174 147 203 241 232 237 234 210 242 273 175 130 131 135 125 115 123 129 130 123 114 104 102 97 81 78 88 95 112 116 107 99 58 59 75 67 53 48 47 50 54 52 49 54 62 67 64 58 55 55 55 57 55 50 50 47 39 31 10 323 269 256 260 265 263 254 248 248 240 231 236 239 235 230 231 233 232 233 231 230
241 264 250 244 282 231 199 172 144 207 240 233 244 244 199 32 333 162 164 175 149 138 137 140 142 149 145 128 115 119 123 119 93 71 28 257 98 94 95 83 68 75 76 67 58 53 54 57 57 56 57 61 67 66 61 59 56 55 57 56 54 54 53 52 52 56 65 77 82 281 285 286 277 266 262 254 245 246 247 242 234 228 229 228 225 222 223
216 262 266 251 254 244 162 126 137 232 255 248 250 244 182 211 234 187 180 260 188 157 155 149 149 169 185 177 145 140 144 142 129 129 192 153 79 80 86 81 69 67 71 72 68 63 60 57 58 63 63 63 66 64 60 59 59 59 58 56 53 53 54 56 58 60 65 65 58 46 24 359 345 326 305 284 268 258 251 244 236 227 224 222 216 214 219
222 242 263 260 258 312 77 121 158 210 238 221 229 229 201 258 249 187 156 193 238 208 168 152 155 189 210 204 162 150 150 148 144 144 139 116 99 87 83 79 73 69 71 75 78 78 76 69 63 65 67 65 65 64 60 58 58 59 58 55 52 49 47 50 53 55 57 55 51 47 37 25 16 5 350 328 305 282 261 244 228 211 203 204 205 205 213
241 236 249 264 265 96 104 176 148 158 208 225 240 235 173 213 256 204 142 165 198 205 179 158 158 196 249 175 151 152 154 147 136 126 105 95 96 92 85 81 79 76 73 73 74 75 77 77 72 68 66 63 63 62 61 59 58 56 53 51 51 48 43 44 47 51 54 53 52 51 43 35 32 29 24 14 353 333 312 265 206 184 178 188 200 192 180
234 227 238 261 203 113 133 194 157 144 198 232 247 252 97 156 243 132 107 135 165 167 190 164 148 171 166 135 140 147 149 138 129 130 122 102 86 81 78 75 76 77 73 72 73 71 71 74 74 70 64 60 59 59 60 60 58 56 55 52 51 49 46 45 46 49 53 53 52 52 48 42 41 41 39 33 22 15 22 35 70 118 125 135 144 131 124
239 232 237 250 227 96 106 177 129 134 242 243 222 113 93 215 248 120 119 140 190 155 152 122 129 144 136 134 140 143 139 129 122 122 116 106 98 95 90 82 77 77 75 73 73 71 67 65 66 68 66 62 59 58 59 60 58 56 55 54 53 52 50 47 46 47 49 48 46 47 45 43 41 42 45 46 43 39 41 49 63 78 86 95 99 92 92
243 240 239 252 258 141 186 180 149 168 265 185 136 138 156 200 234 141 135 146 174 210 184 146 144 148 142 142 146 143 137 132 122 110 101 99 97 95 94 89 82 79 76 71 68 66 62 58 58 63 64 61 59 57 55 54 55 55 54 53 55 56 53 50 48 47 47 48 47 46 43 40 39 40 43 48 52 53 57 64 66 64 61 61 63 65 68
246 240 229 272 51 140 170 194 156 92 107 130 149 169 172 176 197 178 137 144 166 189 182 153 147 149 147 149 149 144 139 135 128 120 110 105 98 89 84 80 76 76 75 72 70 66 63 59 56 58 60 58 57 57 55 52 50 52 53 53 55 55 53 52 52 51 51 51 51 51 48 44 44 43 41 44 48 52 57 64 65 61 52 45 46 48 52
276 281 94 44 59 136 145 113 75 109 128 149 169 179 168 157 165 164 131 136 154 167 157 143 144 147 149 152 152 148 140 131 127 122 116 112 108 100 92 86 82 80 77 75 74 71 67 64 58 56 56 55 51 51 54 55 52 51 52 53 54 55 53 51 50 51 54 54 53 52 50 47 47 46 45 48 50 50 51 55 60 63 60 56 55 53 52
259 127 125 154 247 163 134 107 105 129 149 164 171 171 157 140 140 140 133 137 149 154 149 147 149 147 146 150 154 147 134 127 125 122 118 116 114 109 104 100 96 89 83 77 73 69 64 63 61 59 56 52 46 44 50 56 53 50 53 55 57 57 56 54 51 48 50 52 51 50 48 48 48 47 48 51 50 50 52 55 58 63 68 71 75 76 72
230 166 168 184 207 194 155 135 133 144 153 155 155 150 134 129 134 131 124 136 153 154 149 150 151 147 147 151 155 144 134 133 132 125 117 112 107 103 102 102 100 95 88 82 76 70 62 56 55 57 56 54 47 41 45 51 50 49 52 56 57 56 55 55 53 51 51 51 49 47 45 45 47 46 46 48 49 45 44 46 52 58 63 67 68 68 63
189 178 161 150 160 181 167 155 156 155 151 143 132 127 125 128 136 133 133 150 161 152 147 149 152 152 151 151 152 146 139 138 136 128 122 117 110 106 103 101 98 95 91 87 81 76 68 60 55 52 51 52 50 44 42 41 43 48 49 48 51 52 52 53 51 51 54 55 55 54 51 48 48 45 41 41 44 42 39 41 43 41 43 50 51 45 42
180 174 162 145 154 175 178 182 174 152 146 143 135 134 138 139 138 138 145 160 160 147 146 151 156 156 151 147 151 149 139 135 135 131 128 127 124 119 114 108 104 100 97 94 90 84 76 68 62 56 51 49 47 46 44 38 39 43 43 44 50 49 46 48 50 52 55 53 55 64 67 62 57 53 51 50 51 49 48 51 53 48 43 45 45 42 40
216 197 173 174 207 209 182 180 166 144 144 149 148 151 153 146 143 146 150 152 145 141 148 156 157 154 150 149 152 147 139 139 139 135 135 136 133 130 126 121 115 107 100 97 93 90 84 76 70 63 57 52 46 44 43 39 39 38 32 33 43 45 44 41 33 37 54 57 51 56 68 73 69 63 59 58 57 56 55 55 56 59 60 60 61 61 55
255 203 159 178 227 246 169 162 155 147 150 156 156 158 154 144 144 149 151 150 145 142 149 156 154 151 152 154 153 150 146 144 141 139 144 146 142 141 138 130 122 113 106 101 97 92 85 80 76 70 64 58 49 45 42 37 37 37 30 27 33 39 45 41 22 18 39 54 56 57 59 69 82 80 73 66 59 54 56 61 63 64 64 63 63 63 59
282 85 147 179 221 235 157 152 154 154 157 160 158 155 150 147 150 153 152 153 152 149 150 152 152 152 154 157 158 154 149 147 148 151 154 153 150 150 146 138 130 119 111 103 95 90 83 79 76 71 67 60 50 46 44 36 33 33 28 24 26 28 33 34 21 15 26 33 37 51 58 60 67 76 102 99 84 67 59 62 66 67 64 59 55 53 51
253 151 158 175 207 207 150 149 155 159 160 161 158 154 151 153 156 155 152 154 157 157 155 153 153 156 159 161 161 157 154 157 158 156 156 161 164 163 159 151 138 121 113 109 101 93 85 78 73 68 67 63 51 44 47 41 35 31 25 23 27 25 21 17 13 12 17 16 15 19 21 18 18 346 332 93 105 105 103 96 85 73 59 47 43 43 41
245 173 155 166 195 181 151 152 158 160 162 163 157 153 153 154 155 156 155 157 161 161 159 155 154 158 164 165 164 163 164 164 162 162 169 173 171 169 166 154 140 128 121 115 105 93 83 78 72 59 52 50 42 34 36 34 29 25 21 18 18 17 13 6 359 359 3 1 0 359 352 344 334 318 323 344 8 158 163 151 132 113 89 51 32 29 32
214 182 159 169 187 173 160 164 164 162 165 165 158 155 154 153 156 160 160 162 164 161 159 157 155 158 166 168 166 166 165 163 165 171 177 176 174 173 160 142 135 133 125 114 104 96 89 86 82 67 47 34 26 19 22 23 14 5 4 353 323 337 14 11 356 346 352 354 349 342 341 335 318 308 314 315 275 241 181 150 163 159 132 99 30 10 25
193 180 178 188 186 169 166 167 163 163 167 164 160 160 157 155 164 171 165 165 167 162 160 161 158 160 167 167 164 163 164 168 175 176 173 177 181 165 139 133 135 130 123 119 116 109 99 91 91 83 61 32 14 8 9 6 352 340 344 338 318 297 324 349 344 340 344 345 339 331 327 317 305 304 305 288 269 258 201 197 271 270 186 136 141 321 8
181 179 192 198 176 165 167 162 159 166 171 165 163 165 162 162 172 175 168 169 172 167 167 168 164 166 171 168 164 167 172 177 182 177 168 172 169 147 137 141 136 126 123 121 114 109 101 88 88 91 67 25 2 359 359 350 338 332 330 323 317 314 320 333 338 332 323 317 314 318 315 303 292 292 290 286 290 293 283 264 263 275 288 261 223 223 207
183 176 186 192 176 171 170 165 166 174 175 168 167 170 167 169 177 176 169 170 171 169 170 172 169 172 177 173 170 175 177 176 175 168 159 155 149 142 144 145 138 135 133 120 101 98 99 84 72 71 5 350 344 346 344 335 327 325 314 301 297 296 299 310 318 314 307 299 290 289 293 288 283 286 284 281 285 288 288 290 295 292 287 276 241 225 207
192 174 173 182 186 180 173 171 175 179 177 173 173 174 172 173 177 176 168 167 170 170 170 171 172 175 179 176 172 172 171 169 166 159 154 152 147 144 145 151 154 155 144 130 117 107 91 18 316 316 336 334 333 335 331 324 321 315 306 300 297 285 273 281 297 299 293 290 288 286 286 286 286 288 289 287 285 282 281 284 286 284 282 276 265 264 264
186 177 178 180 184 185 182 178 180 182 181 179 179 180 178 176 176 172 167 170 173 170 167 171 175 175 174 173 171 169 166 162 159 156 155 153 149 146 148 153 152 128 132 159 191 224 262 285 306 331 334 325 327 329 324 321 319 313 306 305 303 288 268 273 289 290 286 286 286 281 276 278 283 285 284 284 287 289 287 282 276 277 283 288 290 302 98
181 181 186 182 183 190 190 185 184 186 184 182 183 185 183 180 176 171 168 172 173 168 168 173 174 168 166 167 167 166 163 159 158 159 159 155 153 155 159 159 157 162 177 193 212 240 264 276 295 315 318 318 323 323 319 318 315 308 305 306 303 297 290 283 281 281 279 277 277 277 278 282 290 292 287 284 285 287 288 288 285 277 272 278 298 45 90
200 194 193 189 191 195 190 184 186 189 186 186 188 187 183 183 178 170 171 175 174 169 171 173 168 164 164 164 164 165 164 163 163 165 166 166 169 172 175 177 180 190 200 216 239 266 304 335 329 320 322 322 317 313 310 310 308 304 305 306 302 299 298 290 280 279 281 279 278 280 281 280 279 278 278 280 283 285 285 286 288 287 277 272 273 88 48
228 226 212 201 203 203 193 185 188 189 186 189 192 186 183 184 176 168 172 179 176 172 172 172 168 167 168 167 169 171 171 172 178 180 180 181 181 179 183 190 192 196 208 224 241 267 332 351 312 315 324 318 308 306 306 304 303 304 307 306 300 296 296 294 290 289 289 290 289 284 279 277 278 278 278 279 280 282 283 282 281 283 282 278 264 174 202
226 237 228 207 203 206 199 191 193 192 188 189 190 182 181 183 175 169 173 179 177 175 176 173 173 176 175 173 176 180 180 184 189 189 187 190 187 185 192 196 190 205 235 241 223 209 216 259 283 302 313 308 299 299 308 310 309 306 303 301 297 291 287 286 286 287 288 289 289 287 285 285 285 283 283 285 284 283 283 281 277 276 279 278 259 194 189
216 232 231 207 198 205 201 194 193 191 187 188 187 181 181 181 175 170 174 179 179 178 177 176 181 186 183 179 182 187 188 193 198 196 195 195 190 188 194 198 204 228 248 246 202 196 234 283 298 302 303 300 296 301 315 323 320 309 298 292 289 286 285 286 287 288 289 288 287 287 286 284 279 274 273 276 278 278 279 279 277 274 274 271 255 223 206
212 222 221 202 195 201 197 189 188 188 185 187 185 181 181 180 172 170 177 184 182 177 176 177 186 190 185 181 187 194 195 196 198 193 187 186 187 193 201 214 232 239 233 177 114 163 257 305 319 310 294 293 302 305 311 325 328 317 301 292 291 292 294 296 296 295 294 295 296 295 292 290 287 284 282 281 280 280 281 282 280 277 273 269 258 244 234
210 211 205 192 192 196 189 182 184 186 186 186 183 179 179 178 172 172 181 183 176 171 174 180 186 189 185 184 188 191 189 189 186 178 174 179 194 206 207 203 191 151 102 55 1 261 200 355 338 311 279 287 304 302 300 319 323 312 297 292 295 296 295 295 294 294 294 294 294 293 291 289 288 287 286 285 284 285 286 286 283 279 275 269 259 253 251
201 198 195 189 188 185 178 175 182 186 186 186 182 177 177 176 174 175 179 176 169 170 177 181 183 183 183 184 186 183 179 178 177 177 178 182 197 218 228 215 192 182 179 339 310 289 324 321 301 282 271 285 299 301 312 324 318 305 295 298 301 299 297 297 294 293 294 295 294 292 290 291 293 294 294 292 288 287 286 284 280 278 274 268 261 255 256
187 187 191 187 180 176 173 175 182 186 185 185 183 179 177 178 176 174 173 169 166 170 177 180 181 180 180 182 179 173 170 172 181 191 195 192 202 229 246 227 166 162 174 176 173 262 322 300 257 264 275 281 298 308 312 313 309 302 303 311 310 308 310 312 309 306 307 307 306 304 302 302 301 300 298 295 293 292 286 280 277 278 279 275 268 265 264
182 182 186 181 174 172 171 172 176 180 181 181 179 176 175 175 172 169 167 164 163 169 175 176 174 174 175 176 173 169 168 169 180 198 210 213 217 234 245 173 126 135 170 192 199 232 246 224 219 263 260 259 326 332 312 299 300 302 305 310 311 311 313 314 313 312 311 309 308 311 313 312 309 306 303 300 301 299 293 289 291 301 301 296 291 287 282
184 179 181 178 172 169 167 165 168 171 174 173 172 173 174 173 168 163 161 159 161 166 168 165 162 164 167 169 168 166 164 164 172 188 201 204 206 230 254 217 169 168 189 203 212 232 239 237 236 235 232 252 292 310 299 283 287 289 289 296 304 306 309 312 315 316 315 314 313 316 322 323 321 320 321 321 321 317 308 304 311 328 326 315 305 299 297
185 180 181 179 173 167 164 161 162 164 165 166 168 172 174 172 167 162 159 159 162 164 162 159 160 163 164 163 165 166 166 171 179 188 193 196 198 200 204 199 180 163 175 217 232 241 243 204 164 167 237 277 281 272 270 278 281 277 278 288 294 299 306 312 314 315 316 316 315 317 323 325 324 328 336 339 340 343 339 332 334 344 345 335 313 302 301
182 181 183 179 173 168 165 163 162 161 160 160 163 167 169 167 165 162 162 162 163 162 160 160 160 160 160 163 169 173 175 180 187 192 200 216 216 187 176 177 185 182 182 209 233 234 207 146 158 192 274 290 255 233 263 283 284 279 284 291 295 301 306 306 308 312 316 317 319 324 329 328 325 330 339 341 342 353 1 358 355 356 354 350 348 337 327
179 181 184 181 175 171 168 164 158 155 155 155 158 163 165 164 162 162 162 162 160 158 158 159 158 158 162 166 166 166 170 176 183 188 193 183 81 130 149 161 179 181 176 184 223 225 209 189 245 258 264 252 232 246 275 286 279 274 288 292 291 294 294 293 300 308 313 318 321 324 327 330 331 333 338 337 337 347 358 357 352 352 360 12 31 60 69
175 177 184 183 176 172 169 161 154 153 156 157 158 161 162 162 159 158 157 156 153 151 152 153 153 156 161 164 163 168 174 173 174 184 190 156 115 136 155 167 172 173 176 191 217 197 166 151 200 250 248 226 226 247 270 273 257 264 280 282 284 291 295 298 300 300 305 318 322 317 316 321 328 332 334 334 336 343 349 348 343 340 345 14 59 102 143
182 181 184 181 175 171 167 161 157 158 162 162 159 158 158 157 154 152 151 149 147 147 147 148 151 156 160 161 165 174 179 177 176 184 190 184 164 157 168 182 183 177 182 197 211 207 197 203 222 240 235 219 224 243 256 253 250 258 258 254 261 270 271 274 282 285 291 300 307 309 311 315 319 325 329 329 332 340 343 342 344 346 345 352 38 64 246
191 185 181 177 173 169 166 163 163 165 166 162 158 156 154 152 150 150 150 149 148 149 150 150 152 156 159 163 170 175 180 187 192 176 168 172 173 160 159 173 183 182 185 198 207 207 217 240 255 243 223 220 237 253 250 237 243 258 255 253 257 251 245 263 291 296 295 295 295 299 304 306 309 320 323 316 314 322 325 321 328 343 343 333 322 313 298
183 180 179 179 175 171 169 169 170 169 166 161 157 155 154 153 153 154 155 155 155 156 156 157 159 161 163 169 174 173 170 172 170 148 148 160 168 159 152 163 179 188 198 210 200 190 205 246 262 219 207 220 245 257 246 235 239 238 232 242 250 237 208 237 272 264 266 286 299 300 296 297 302 310 310 303 300 305 308 303 309 326 327 310 292 288 291
180 180 181 181 180 177 176 175 172 168 164 160 157 156 157 158 158 157 158 160 161 161 160 160 163 166 169 171 171 166 161 161 160 154 154 160 164 160 156 158 166 179 194 212 206 193 201 211 191 185 202 223 236 235 239 253 252 236 221 236 246 239 223 243 259 250 242 263 284 284 285 290 297 298 296 293 292 292 292 291 293 299 302 296 290 288 291
185 182 179 179 179 177 173 169 165 161 159 157 156 157 159 159 158 157 159 163 165 167 166 165 165 168 171 170 166 161 160 162 163 161 160 161 162 162 162 159 161 170 183 198 205 202 201 192 180 188 212 233 234 225 228 240 242 237 229 229 237 241 240 245 266 291 308 305 290 289 299 312 317 310 303 299 295 289 288 289 290 291 292 292 290 288 290